| time (UTC) | temp C | wind direction | speed KPH | gust KPH | rain 1hr cm | rain 24hr cm | rain mn cm | humidity % | barometer mb |
| 20260504044535 | 15 | 223 | 1.6 | 8.0 | 0.00 | 0.15 | 0.15 | 63 | 1006.2 |
| 20260504043025 | 15 | 259 | 4.8 | 12.9 | 0.00 | 0.15 | 0.15 | 63 | 1006.2 |
| 20260504041524 | 15 | 229 | 1.6 | 11.3 | 0.00 | 0.15 | 0.15 | 64 | 1006.1 |
| 20260504040024 | 15 | 201 | 4.8 | 11.3 | 0.00 | 0.15 | 0.15 | 63 | 1006.0 |
| 20260504034524 | 15 | 167 | 8.0 | 14.5 | 0.00 | 0.15 | 0.15 | 62 | 1006.1 |
| 20260504033023 | 15 | 186 | 4.8 | 11.3 | 0.00 | 0.15 | 0.15 | 62 | 1006.4 |
| 20260504031528 | 15 | 200 | 4.8 | 14.5 | 0.00 | 0.15 | 0.15 | 60 | 1006.4 |
| 20260504030023 | 16 | 194 | 3.2 | 11.3 | 0.00 | 0.15 | 0.15 | 58 | 1006.6 |
| 20260504024521 | 16 | 209 | 3.2 | 11.3 | 0.00 | 0.15 | 0.15 | 57 | 1006.5 |
| 20260504023022 | 16 | 190 | 3.2 | 9.7 | 0.00 | 0.15 | 0.15 | 55 | 1006.5 |
| 20260504021520 | 16 | 212 | 3.2 | 8.0 | 0.00 | 0.15 | 0.15 | 55 | 1006.4 |
| 20260504020019 | 17 | 202 | 3.2 | 9.7 | 0.00 | 0.15 | 0.15 | 54 | 1006.3 |
| 20260504014522 | 17 | 218 | 3.2 | 9.7 | 0.00 | 0.15 | 0.15 | 54 | 1006.2 |
| 20260504013025 | 17 | 194 | 3.2 | 8.0 | 0.00 | 0.15 | 0.15 | 54 | 1006.1 |
| 20260504011518 | 17 | 194 | 3.2 | 8.0 | 0.00 | 0.15 | 0.15 | 53 | 1006.1 |
| 20260504010017 | 17 | 202 | 3.2 | 8.0 | 0.00 | 0.15 | 0.15 | 52 | 1006.1 |
| 20260504004518 | 18 | 196 | 3.2 | 9.7 | 0.00 | 0.15 | 0.15 | 50 | 1006.1 |
| 20260504003017 | 18 | 194 | 3.2 | 11.3 | 0.00 | 0.15 | 0.15 | 49 | 1006.0 |
| 20260504001518 | 19 | 240 | 4.8 | 14.5 | 0.00 | 0.15 | 0.15 | 48 | 1006.1 |
| 20260504000015 | 19 | 350 | 6.4 | 19.3 | 0.00 | 0.15 | 0.15 | 47 | 1006.0 |
| 20260503234514 | 20 | 198 | 4.8 | 14.5 | 0.00 | 0.15 | 0.15 | 47 | 1006.1 |
| 20260503233014 | 20 | 194 | 4.8 | 19.3 | 0.00 | 0.15 | 0.15 | 46 | 1006.2 |
| 20260503231519 | 20 | 221 | 8.0 | 20.9 | 0.00 | 0.15 | 0.15 | 45 | 1006.2 |
| 20260503230011 | 20 | 212 | 9.7 | 25.7 | 0.00 | 0.15 | 0.15 | 44 | 1006.3 |
| 20260503224509 | 20 | 217 | 4.8 | 22.5 | 0.00 | 0.15 | 0.15 | 44 | 1006.4 |
| 20260503223008 | 20 | 234 | 9.7 | 24.1 | 0.00 | 0.15 | 0.15 | 43 | 1006.6 |
| 20260503221507 | 20 | 225 | 3.2 | 19.3 | 0.00 | 0.15 | 0.15 | 44 | 1006.6 |
| 20260503220006 | 20 | 208 | 4.8 | 25.7 | 0.00 | 0.15 | 0.15 | 43 | 1006.7 |
| 20260503214508 | 20 | 190 | 11.3 | 30.6 | 0.00 | 0.15 | 0.15 | 42 | 1006.7 |
| 20260503213002 | 20 | 218 | 9.7 | 32.2 | 0.00 | 0.15 | 0.15 | 42 | 1006.9 |
| 20260503211601 | 20 | 5 | 8.0 | 25.7 | 0.00 | 0.15 | 0.15 | 43 | 1007.1 |
| 20260503210056 | 19 | 198 | 8.0 | 27.4 | 0.00 | 0.15 | 0.15 | 43 | 1007.5 |
| 20260503204558 | 19 | 219 | 11.3 | 33.8 | 0.00 | 0.15 | 0.15 | 44 | 1007.7 |
| 20260503203052 | 18 | 176 | 9.7 | 37.0 | 0.00 | 0.15 | 0.15 | 45 | 1008.2 |
| 20260503201549 | 19 | 194 | 11.3 | 30.6 | 0.00 | 0.15 | 0.15 | 43 | 1008.5 |
| 20260503200046 | 18 | 205 | 9.7 | 33.8 | 0.00 | 0.15 | 0.15 | 41 | 1008.4 |
| 20260503194546 | 17 | 232 | 8.0 | 22.5 | 0.00 | 0.15 | 0.15 | 44 | 1008.8 |
| 20260503193052 | 17 | 230 | 16.1 | 40.2 | 0.00 | 0.15 | 0.15 | 43 | 1009.1 |
| 20260503191538 | 17 | 211 | 17.7 | 30.6 | 0.00 | 0.15 | 0.15 | 45 | 1009.3 |
| 20260503190044 | 17 | 193 | 14.5 | 27.4 | 0.00 | 0.15 | 0.15 | 52 | 1009.3 |
| 20260503184531 | 16 | 198 | 19.3 | 35.4 | 0.00 | 0.15 | 0.15 | 54 | 1009.5 |
| 20260503183026 | 15 | 185 | 14.5 | 32.2 | 0.00 | 0.15 | 0.15 | 60 | 1009.9 |
| 20260503181523 | 14 | 209 | 12.9 | 38.6 | 0.00 | 0.15 | 0.15 | 65 | 1010.3 |
| 20260503180033 | 13 | 188 | 8.0 | 19.3 | 0.00 | 0.15 | 0.15 | 75 | 1010.6 |
| 20260503174513 | 11 | 149 | 6.4 | 11.3 | 0.00 | 0.15 | 0.15 | 84 | 1011.2 |
| 20260503173010 | 9 | 194 | 1.6 | 9.7 | 0.00 | 0.15 | 0.15 | 87 | 1011.7 |
| 20260503171509 | 8 | 184 | 0.0 | 11.3 | 0.00 | 0.15 | 0.15 | 88 | 1012.1 |
| 20260503150106 | 10 | 211 | 1.6 | 11.3 | 0.08 | 0.08 | 0.08 | 72 | 1015.2 |
| 20260503081512 | 8 | 207 | 0.0 | 6.4 | 0.00 | 0.00 | 0.00 | 57 | 1015.7 |
| 20260503071506 | 8 | 184 | 1.6 | 9.7 | 0.00 | 0.00 | 0.00 | 52 | 1015.8 |
| 20260503070104 | 8 | 207 | 1.6 | 6.4 | 0.00 | 0.00 | 0.00 | 52 | 1015.8 |